Regional Weather Roundup
Issued by NWS State College, PA

Home | Current Version | Previous Version | Graphics & Text | Print | Product List | Glossary On
Versions: 1 2 3 4 5 6 7 8 9 10 11 12 13 14 15 16 17 18 19 20 21 22 23 24 25 26 27 28 29 30 31 32 33 34 35 36 37 38 39 40 41 42 43 44 45 46 47 48 49 50
000
ASUS41 KCTP 222103
RWRCTP

REGIONAL WEATHER ROUNDUP
NATIONAL WEATHER SERVICE STATE COLLEGE PA
500 PM EDT WED OCT 22 2014

Note: "fair" indicates few or no clouds below 12,000 feet with no
significant weather and/or obstructions to visibility.

* = STATION THAT DOES NOT REPORT PRECIPITATION /E.G. RAIN...SNOW...ETC/
    THUNDER OR FOG.

PAZ002>004-007>009-013>016-020>023-029>032-222200-
WESTERN PENNSYLVANIA

CITY           SKY/WX    TMP DP  RH WIND       PRES   REMARKS
ERIE           CLOUDY    49  41  74 NE8       30.23S
MEADVILLE      CLOUDY    46  40  79 N7        30.20S
FRANKLIN*      CLOUDY    45  37  76 N7        30.19F
NEW CASTLE       N/A     47  42  82 N9        30.21F
BEAVER COUNTY  CLOUDY    48  41  76 N8        30.18F
BUTLER*        CLOUDY    48  39  71 N8G16     30.18S
PITTSBURGH INT CLOUDY    49  41  74 NW13      30.17S
PITTSBURGH     CLOUDY    49  39  68 N12       30.15S
INDIANA*       CLOUDY    48  43  81 VRB5G12   30.17S
LATROBE        CLOUDY   N/A N/A N/A N7        30.15S
WASHINGTON CO* CLOUDY    48  39  71 NW9G17    30.18F
$$

PAZ004>006-010>012-017>019-024>028-033>037-041-042-045-046-049>053-222200-
CENTRAL PENNSYLVANIA

CITY           SKY/WX    TMP DP  RH WIND       PRES   REMARKS
BRADFORD       CLOUDY    42  39  89 N8        30.14R
DUBOIS         CLOUDY    45  40  82 N13G18    30.11F
CLEARFIELD     CLOUDY    48  41  76 N10       30.11S
JOHNSTOWN      CLOUDY    44  40  85 NW14      30.09S
ALTOONA        CLOUDY    50  43  77 N8        30.06S
STATE COLLEGE  CLOUDY    50  43  76 N12       30.06R
WILLIAMSPORT   CLOUDY    52  43  71 W8        30.04R
SELINSGROVE    CLOUDY    54  44  69 N15G23    30.01S
FT INDIANTOWN  CLOUDY    54  50  87 N9G23     29.94F
CAPITAL CITY   CLOUDY    56  45  66 N14G20    29.97R
HARRISBURG     CLOUDY    54  45  71 N16G25    29.95S
YORK           CLOUDY    54  45  71 N12G21    29.95S
$$

PAZ038>040-043-044-047-048-054-055-060>062-067>071-222200-
EASTERN PENNSYLVANIA

CITY           SKY/WX    TMP DP  RH WIND       PRES   REMARKS
SCRANTON       CLOUDY    52  46  80 N14       29.97S
MOUNT POCONO   LGT RAIN  48  44  86 N14G32    29.91F
ALLENTOWN      LGT RAIN  56  47  71 N12       29.89F
QUAKERTOWN*    CLOUDY    54  48  82 N12G18    29.88F
READING        LGT RAIN  56  47  71 N15G25    29.90F
LANCASTER      CLOUDY    54  46  74 N18G29    29.92S
COATESVILLE    LGT RAIN  52  50  93 N13       29.88F
POTTSTOWN      CLOUDY    54  50  86 N12       29.89S
BLUE BELL      CLOUDY    55  52  88 N6        29.85S
DOYLESTOWN     LGT RAIN  53  50  89 N16G30    29.85S
WILLOW GROVE   NOT AVBL
NORTH PHILA    LGT RAIN  56  48  74 N13       29.86S
PHILADELPHIA   LGT RAIN  56  50  80 N14G23    29.84S
$$



USA.gov is the U.S. government's official web portal to all federal, state and local government web resources and services.